STARLINK-3742, 52303

Orbit data source: Space-Track

STARLINK-3742, 52303 is a payload satellite owned by SpaceX/Seattle (US) in LEO that was launched on Thu, 21 Apr 2022 UTC via an FALCON 9 launch vehicle from the Air Force Eastern Test Range (AFETR). Payload-class satellites include a variety of spacecraft equipped with specific instruments for various scientific and technological missions. These include communications satellites like Starlink; space stations such as the ISS; scientific satellites like the Hubble; Earth observation satellites from companies like Planet Labs, Umbra, and HawkEye 360; GPS; miniature CubeSats for education and research; and military/defense satellites.

Loading next visibility...
Identifier
52303, 2022-041AU
Orbit
LEO
Country
Flag of USUS
Related business
Manufacturer
SpaceX/Seattle
Mission
Operational Commercial Communications
Bus & Motor
STARLINK, Unknown motor
Mass
297 kg wet, ~275 kg dry
Launch date (UTC)
2022-04-21 (4 years ago)
Launch vehicle
FALCON 9
Launch site
Air Force Eastern Test Range (AFETR)
Object type
Payload
Rocket body
Debris
Shape & HBR
Box + 1 Pan, 10.1 m
Radar Cross Section
11.087 m², Large (>1 m²)

Expand to show TLE details & history
Last TLE update: 5 hours ago

TLE from 5 hours ago
0 STARLINK-3742
1 52303U 22041AU  26193.16668980  .00061716  00000-0  28306-2 0  9999
2 52303  53.1590 259.7274 0002039  52.3523 347.4348 15.19880233  5635
Epoch: 2026-07-12T04:00Z
TLE epoch observation values (Epoch: 2026-07-12T04:00:01.998Z)
Latitude
30.89943°
Longitude
-63.86855°
Altitude
506.677 km
Speed
7.616 km/s
True Right ascension
19h 04m 50s
True Declination
30° 44' 33"
Sunlit
Object was in full shadow at epoch
Visualization orbit readout
Latitude
Unknown
Longitude
Unknown
Altitude
Unknown
Speed
Unknown
Apparent Right ascension
Unknown
Apparent Declination
Unknown
Sunlit
N/A
Visualization observer readout
Local Sidereal Time
21:42:48
Azimuth
Unknown
Elevation
Unknown
Doppler factor
Unknown
Orbital elements
Apogee altitude
507.861 km
Perigee altitude
505.054 km
Semi-major axis
6,884.595 km
Eccentricity
0.0002
Inclination
53.159°
RAAN
259.7274°
Arg. of periapsis
52.3523°
True anomaly
347.42972°
Mean anomaly
347.4348°
Eccentric anomaly
347.43226°
Mean motion
3.79949 °/min
Orbital period
94.75 mins
BSTAR
0.0028306
Loading maneuver chart data...
Computing Atmospheric mass density...
Loading historical data...
Loading historical data...
Loading historical data...
Loading historical data...
Loading historical data...
Loading historical data...
Loading historical data...

Documentation

Showing up to 5 results
|